User: anonymous   Login
Location: Unspecified
(0.0000°N, 0.0000°E)
Time: 21:21:19
(UTC+01:00)
Language:

Cosmos 407 Rocket - Orbit

View from above orbital plane
View from above orbital plane
View from above satellite
View from above satellite

Ground track
Ground track

The orbit data is extracted from the following two-line orbital elements,

1 05175U 71035B   15028.12170562  .00000141  00000-0  55458-4 0  6134
2 05175 074.0496 011.7020 0028770 075.4125 285.0216 14.37614441289771
Epoch (UTC): 28 January 2015 02:55:15
Eccentricity: 0.0028770
inclination: 74.0496°
perigee height: 746 km
apogee height: 787 km
right ascension of ascending node: 11.7020°
argument of perigee: 75.4125°
revolutions per day: 14.37614441
mean anomaly at epoch: 285.0216°
orbit number at epoch: 28977

The dashed part of the orbit path shows where the satellite is in the earth's shadow,  

DLR